DW6386 Weather Reports


time (UTC)temp
F
wind
direction
speed
knots
gust
knots
rain 1hr
in
rain 24hr
in
rain mn
in
humidity
%
barometer
mb
20260906171546 91 284 0.9 3.5 0.00 0.57 0.09 67 1010.6
20260906170047 90 52 0.9 5.2 0.00 0.57 0.09 69 1010.7
20260906164544 91 53 1.7 4.3 0.00 0.57 0.09 66 1010.9
20260906163041 90 328 0.0 3.5 0.00 0.57 0.09 69 1011.0
20260906161539 88 111 0.0 2.6 0.00 0.57 0.09 70 1011.0
20260906160036 86 176 0.0 2.6 0.00 0.57 0.09 72 1011.1
20260906154533 86 214 0.0 1.7 0.00 0.57 0.09 72 1011.3
20260906153035 85 240 0.9 2.6 0.00 0.57 0.09 74 1011.5
20260906151535 84 258 0.0 2.6 0.00 0.57 0.09 76 1011.5
20260906150026 84 215 0.0 3.5 0.00 0.57 0.09 75 1011.6
20260906144521 83 36 0.0 1.7 0.00 0.57 0.09 76 1011.8
20260906143027 82 192 0.0 2.6 0.00 0.57 0.09 78 1011.8
20260906141515 81 247 0.9 2.6 0.00 0.57 0.09 81 1011.8
20260906140021 81 262 0.0 2.6 0.00 0.57 0.09 82 1011.9
20260906134514 80 190 0.0 0.0 0.00 0.57 0.09 83 1011.9
20260906133020 79 190 0.0 0.0 0.00 0.57 0.09 89 1011.9
20260906131504 78 153 0.0 0.0 0.00 0.57 0.09 93 1012.0
20260906124556 74 94 0.0 0.0 0.00 0.57 0.09 98 1012.0
20260906123059 72 93 0.0 0.0 0.00 0.57 0.09 98 1011.9
20260906121553 71 93 0.0 0.0 0.00 0.57 0.09 98 1011.8
20260906120052 70 93 0.0 0.0 0.00 0.57 0.09 99 1011.4
20260906114549 69 93 0.0 0.0 0.00 0.57 0.09 99 1011.2
20260906113047 69 93 0.0 0.0 0.00 0.57 0.09 98 1011.2
20260906111549 69 93 0.0 0.0 0.00 0.57 0.09 98 1011.0
20260906110052 69 93 0.0 0.0 0.00 0.57 0.09 98 1010.8
20260906104544 69 93 0.0 0.0 0.00 0.57 0.09 98 1010.6
20260906103100 69 93 0.0 0.9 0.00 0.57 0.09 98 1010.3
20260906101543 69 93 0.0 0.0 0.00 0.57 0.09 98 1010.1
20260906100042 69 93 0.0 0.0 0.00 0.57 0.09 98 1010.2
20260906094539 70 93 0.0 0.0 0.00 0.57 0.09 97 1010.2
20260906093040 70 84 0.0 0.9 0.00 0.57 0.09 97 1010.0
20260906091538 70 84 0.0 0.0 0.00 0.57 0.09 97 1009.9
20260906090054 70 84 0.0 0.9 0.00 0.57 0.09 97 1010.0
20260906084535 70 84 0.0 0.0 0.00 0.57 0.09 97 1010.1
20260906083038 71 82 0.0 1.7 0.00 0.57 0.09 96 1010.2
20260906081532 71 89 0.0 0.9 0.00 0.57 0.09 96 1010.2
20260906080031 71 82 0.0 2.6 0.00 0.57 0.09 95 1010.4
20260906074530 71 69 1.7 6.1 0.00 0.57 0.09 95 1010.5
20260906073030 71 73 0.9 5.2 0.01 0.57 0.09 96 1010.9
20260906071526 73 113 0.0 5.2 0.09 0.57 0.09 98 1011.0
20260906070034 73 78 1.7 5.2 0.09 0.57 0.09 99 1010.9
20260906064522 73 68 0.0 0.9 0.09 0.57 0.09 99 1010.6
20260906063036 73 173 0.0 0.0 0.07 0.56 0.07 99 1010.4
20260906061519 73 113 0.0 0.0 0.00 0.49 0.00 99 1010.8
20260906060019 73 107 0.0 0.0 0.00 0.49 0.00 99 1010.7
20260906054517 73 107 0.0 0.0 0.00 0.49 0.00 98 1010.5
20260906053016 72 107 0.0 0.0 0.00 0.49 0.00 98 1010.5
20260906051523 73 107 0.0 0.0 0.00 0.49 0.00 98 1010.7
20260906050013 73 106 0.0 0.0 0.00 0.49 0.00 98 1010.7
20260906044512 73 106 0.0 0.0 0.00 0.49 0.00 98 1010.9
20260906043009 73 106 0.0 0.9 0.00 0.49 0.00 98 1011.1
20260906041508 73 106 0.0 0.0 0.00 0.49 0.00 98 1011.1
20260906040019 73 105 0.0 0.0 0.00 0.49 0.49 98 1011.2
20260906034505 72 170 0.0 0.0 0.00 0.49 0.49 98 1011.1
20260906033005 73 170 0.0 0.0 0.00 0.49 0.49 98 1011.0
20260906031507 73 170 0.0 0.0 0.00 0.49 0.49 98 1011.0
20260906030005 73 170 0.0 0.0 0.00 0.49 0.49 98 1011.1
20260906024503 73 170 0.0 0.0 0.00 0.49 0.49 97 1010.7
20260906023004 73 170 0.0 0.0 0.00 0.49 0.49 97 1010.7
20260906021503 74 170 0.0 0.0 0.00 0.49 0.49 97 1010.4
20260906020003 74 170 0.0 0.0 0.00 0.49 0.49 97 1010.5
20260906014502 74 170 0.0 0.0 0.00 0.49 0.49 96 1010.3
20260906013001 74 184 0.0 0.0 0.00 0.49 0.49 96 1010.2
20260906011501 75 184 0.0 0.0 0.00 0.49 0.49 96 1010.1
20260906010001 75 184 0.0 0.0 0.00 0.49 0.49 95 1010.2
20260906004603 75 184 0.0 0.0 0.00 0.49 0.49 94 1010.2
20260906003059 76 184 0.0 0.0 0.00 0.49 0.49 93 1010.2
20260906001559 77 186 0.0 0.0 0.00 0.49 0.49 93 1010.2
20260906000108 77 186 0.0 0.0 0.00 0.49 0.49 91 1010.3
20260905234619 79 200 0.0 0.0 0.00 0.49 0.49 90 1010.2
20260905233058 79 200 0.0 0.0 0.00 0.49 0.49 89 1010.2
20260905231604 79 200 0.0 0.0 0.00 0.49 0.49 89 1010.0
20260905224556 79 179 0.0 0.0 0.00 0.49 0.49 88 1009.9
20260905223057 78 179 0.0 0.0 0.00 0.49 0.49 88 1009.8
20260905221556 79 155 0.0 0.0 0.00 0.49 0.49 89 1009.9
20260905214553 78 145 0.0 0.0 0.00 0.49 0.49 89 1010.1
20260905213051 78 144 0.0 0.9 0.00 0.49 0.49 90 1010.1
20260905211549 77 295 0.0 1.7 0.00 0.49 0.49 93 1010.4
20260905210057 76 176 0.0 0.0 0.00 0.49 0.49 94 1010.7
20260905204552 76 281 0.0 3.5 0.00 0.49 0.49 94 1010.7
20260905203101 76 130 0.0 0.0 0.00 0.49 0.49 95 1010.6
20260905201543 76 130 0.0 0.9 0.00 0.49 0.49 95 1010.8
20260905200043 76 146 0.0 0.0 0.00 0.49 0.49 95 1010.9
20260905194538 75 146 0.0 0.9 0.00 0.49 0.49 95 1011.3
20260905191510 74 143 0.0 1.7 0.00 0.49 0.49 95 1011.0
20260905190009 74 95 0.0 7.8 0.00 0.49 0.49 94 1012.0
20260905184512 74 92 0.9 7.0 0.49 0.49 0.49 93 1012.4
20260905183008 75 48 0.0 2.6 0.49 0.49 0.49 93 1011.9
20260905181506 76 150 0.0 0.9 0.49 0.49 0.49 89 1012.2
20260905180003 79 187 0.0 7.8 0.49 0.49 0.49 80 1012.3
20260905174508 90 163 0.0 2.6 0.00 0.00 0.00 71 1011.8
20260905173000 90 278 0.9 3.5 0.00 0.00 0.00 70 1011.2